When you browse on this site, cookies collect data to enhance your experience and personalize the content and advertising you see.
Visit our Privacy Policy to learn more. By continuing to use the site, you agree to this use of cookies and data.
  • In Czech Republic
  • List of Countries
  • For 7 days
  • Water Temperature
  • Weather Map
  • Weather Widgets
  • user-avatar
    Login

    Hourly Weather Farim

    Today, 20 September, Friday

    Time Temperature Precipitation Wind Pressure Humidity
    00:00 +24°C° 0 mm 0 mps 758 mmHg 95%
    01:00 +25°C° 0 mm 1 mps 757 mmHg 95%
    02:00 +25°C° 0 mm 1 mps 757 mmHg 96%
    03:00 +25°C° 0 mm 1 mps 757 mmHg 96%
    04:00 +23°C° 0 mm 0 mps 757 mmHg 96%
    05:00 +23°C° 0 mm 0 mps 757 mmHg 96%
    06:00 +24°C° 0 mm 0 mps 758 mmHg 94%
    07:00 +25°C° 0 mm 0 mps 758 mmHg 91%
    08:00 +26°C° 0 mm 0 mps 759 mmHg 89%
    09:00 +30°C° 0 mm 1 mps 759 mmHg 82%
    10:00 +31°C° 0 mm 1 mps 758 mmHg 76%
    11:00 +32°C° 0 mm 1 mps 758 mmHg 70%
    12:00 +33°C° 0 mm 1 mps 758 mmHg 69%
    13:00 +33°C° 0 mm 1 mps 757 mmHg 68%
    14:00 +34°C° 0 mm 2 mps 756 mmHg 68%
    15:00 +33°C° 0 mm 1 mps 756 mmHg 71%
    16:00 +32°C° 0 mm 1 mps 756 mmHg 75%
    17:00 +32°C° 0 mm 1 mps 756 mmHg 79%
    18:00 +30°C° 0.5 mm 1 mps 757 mmHg 83%
    19:00 +29°C° 0.5 mm 1 mps 757 mmHg 87%
    20:00 +27°C° 0.5 mm 1 mps 758 mmHg 91%
    21:00 +27°C° 0 mm 1 mps 758 mmHg 92%
    22:00 +27°C° 0 mm 1 mps 758 mmHg 94%
    23:00 +26°C° 0 mm 1 mps 758 mmHg 95%

    Tomorrow, 21 September, Saturday

    Time Temperature Precipitation Wind Pressure Humidity
    00:00 +26°C° 2.5 mm 1 mps 758 mmHg 96%
    01:00 +26°C° 2.5 mm 2 mps 758 mmHg 97%
    02:00 +26°C° 2.5 mm 2 mps 758 mmHg 98%
    03:00 +25°C° 0.3 mm 2 mps 758 mmHg 98%
    04:00 +25°C° 0.3 mm 2 mps 758 mmHg 98%
    05:00 +25°C° 0.3 mm 2 mps 758 mmHg 98%
    06:00 +26°C° 0 mm 2 mps 758 mmHg 96%
    07:00 +26°C° 0 mm 2 mps 758 mmHg 95%
    08:00 +27°C° 0 mm 2 mps 758 mmHg 93%
    09:00 +29°C° 0 mm 2 mps 758 mmHg 85%
    10:00 +30°C° 0 mm 2 mps 758 mmHg 77%
    11:00 +32°C° 0 mm 2 mps 758 mmHg 69%
    12:00 +34°C° 0.1 mm 2 mps 757 mmHg 69%
    13:00 +34°C° 0.1 mm 3 mps 757 mmHg 69%
    14:00 +35°C° 0.1 mm 3 mps 756 mmHg 68%
    15:00 +34°C° 1.4 mm 3 mps 756 mmHg 75%
    16:00 +32°C° 1.4 mm 2 mps 755 mmHg 81%
    17:00 +31°C° 1.4 mm 2 mps 755 mmHg 88%
    18:00 +30°C° 1.8 mm 2 mps 756 mmHg 89%
    19:00 +29°C° 1.8 mm 1 mps 756 mmHg 90%
    20:00 +28°C° 1.8 mm 1 mps 757 mmHg 91%
    21:00 +27°C° 2.8 mm 1 mps 757 mmHg 93%
    22:00 +27°C° 2.8 mm 1 mps 758 mmHg 94%
    23:00 +26°C° 2.8 mm 1 mps 758 mmHg 96%

    Day after tomorrow, 22 September, Sunday

    Time Temperature Precipitation Wind Pressure Humidity
    00:00 +26°C° 0.3 mm 1 mps 758 mmHg 96%
    01:00 +26°C° 0.3 mm 1 mps 757 mmHg 96%
    02:00 +26°C° 0.3 mm 1 mps 757 mmHg 96%
    03:00 +26°C° 0.1 mm 1 mps 758 mmHg 96%
    04:00 +26°C° 0.1 mm 1 mps 758 mmHg 96%
    05:00 +26°C° 0.1 mm 1 mps 758 mmHg 96%
    06:00 +26°C° 0 mm 1 mps 758 mmHg 94%
    07:00 +27°C° 0 mm 1 mps 759 mmHg 92%
    08:00 +27°C° 0 mm 2 mps 759 mmHg 90%
    09:00 +29°C° 0 mm 2 mps 759 mmHg 83%
    10:00 +30°C° 0 mm 2 mps 759 mmHg 76%
    11:00 +32°C° 0 mm 2 mps 759 mmHg 69%
    12:00 +32°C° 0 mm 2 mps 758 mmHg 68%
    13:00 +32°C° 0 mm 2 mps 758 mmHg 68%
    14:00 +34°C° 0 mm 2 mps 757 mmHg 67%
    15:00 +32°C° 0.4 mm 2 mps 757 mmHg 74%
    16:00 +30°C° 0.4 mm 2 mps 757 mmHg 80%
    17:00 +29°C° 0.4 mm 2 mps 757 mmHg 87%
    18:00 +28°C° 0 mm 2 mps 758 mmHg 88%
    19:00 +28°C° 0 mm 2 mps 758 mmHg 90%
    20:00 +27°C° 0 mm 2 mps 759 mmHg 91%
    21:00 +27°C° 0.1 mm 2 mps 759 mmHg 92%
    22:00 +26°C° 0.1 mm 2 mps 759 mmHg 92%
    23:00 +26°C° 0.1 mm 2 mps 759 mmHg 92%

    23 September, Monday

    Time Temperature Precipitation Wind Pressure Humidity
    00:00 +26°C° 0.1 mm 1 mps 759 mmHg 93%
    01:00 +25°C° 0.1 mm 1 mps 759 mmHg 94%
    02:00 +25°C° 0.1 mm 1 mps 758 mmHg 95%
    03:00 +25°C° 0 mm 1 mps 758 mmHg 96%
    04:00 +25°C° 0 mm 1 mps 758 mmHg 96%
    05:00 +25°C° 0 mm 1 mps 758 mmHg 97%
    06:00 +26°C° 0 mm 1 mps 759 mmHg 93%
    07:00 +25°C° 0 mm 0 mps 759 mmHg 90%
    08:00 +26°C° 0 mm 0 mps 760 mmHg 87%
    09:00 +28°C° 0.8 mm 1 mps 760 mmHg 88%
    10:00 +28°C° 0.8 mm 2 mps 760 mmHg 88%
    11:00 +28°C° 0.8 mm 3 mps 760 mmHg 89%
    12:00 +28°C° 0.5 mm 2 mps 759 mmHg 90%
    13:00 +27°C° 0.5 mm 2 mps 758 mmHg 91%
    14:00 +27°C° 0.5 mm 2 mps 758 mmHg 92%
    15:00 +27°C° 0 mm 2 mps 757 mmHg 91%
    16:00 +27°C° 0 mm 2 mps 757 mmHg 91%
    17:00 +26°C° 0 mm 2 mps 757 mmHg 91%
    18:00 +26°C° 0 mm 2 mps 758 mmHg 93%
    19:00 +26°C° 0 mm 1 mps 758 mmHg 94%
    20:00 +25°C° 0 mm 1 mps 759 mmHg 96%
    21:00 +25°C° 0 mm 1 mps 759 mmHg 96%
    22:00 +25°C° 0 mm 1 mps 760 mmHg 97%
    23:00 +25°C° 0 mm 1 mps 760 mmHg 98%

    24 September, Tuesday

    Time Temperature Precipitation Wind Pressure Humidity
    00:00 +25°C° 0 mm 1 mps 760 mmHg 98%
    01:00 +23°C° 0 mm 0 mps 759 mmHg 98%
    02:00 +22°C° 0 mm 0 mps 759 mmHg 98%
    03:00 +22°C° 0 mm 0 mps 759 mmHg 98%
    04:00 +22°C° 0 mm 0 mps 759 mmHg 98%
    05:00 +22°C° 0 mm 0 mps 759 mmHg 98%
    06:00 +25°C° 0 mm 1 mps 759 mmHg 95%
    07:00 +26°C° 0 mm 1 mps 760 mmHg 93%
    08:00 +27°C° 0 mm 2 mps 760 mmHg 90%
    09:00 +28°C° 0.1 mm 1 mps 760 mmHg 86%
    10:00 +30°C° 0.1 mm 1 mps 760 mmHg 82%
    11:00 +29°C° 0.1 mm 0 mps 760 mmHg 77%
    12:00 +31°C° 0.1 mm 1 mps 759 mmHg 74%
    13:00 +32°C° 0.1 mm 1 mps 758 mmHg 70%
    14:00 +34°C° 0.1 mm 2 mps 757 mmHg 66%
    15:00 +34°C° 0 mm 2 mps 757 mmHg 71%
    16:00 +32°C° 0 mm 2 mps 757 mmHg 75%
    17:00 +31°C° 0 mm 2 mps 757 mmHg 80%
    18:00 +30°C° 0 mm 2 mps 757 mmHg 84%
    19:00 +29°C° 0 mm 1 mps 757 mmHg 89%
    20:00 +27°C° 0 mm 1 mps 758 mmHg 93%
    21:00 +27°C° 0 mm 1 mps 758 mmHg 94%
    22:00 +26°C° 0 mm 1 mps 758 mmHg 95%
    23:00 +25°C° 0 mm 1 mps 758 mmHg 96%

    25 September, Wednesday

    Time Temperature Precipitation Wind Pressure Humidity
    00:00 +25°C° 0 mm 1 mps 758 mmHg 97%
    01:00 +25°C° 0 mm 1 mps 757 mmHg 97%
    02:00 +24°C° 0 mm 1 mps 757 mmHg 98%
    03:00 +24°C° 0 mm 1 mps 757 mmHg 98%
    04:00 +24°C° 0 mm 1 mps 757 mmHg 98%
    05:00 +24°C° 0 mm 1 mps 757 mmHg 98%
    06:00 +25°C° 0 mm 1 mps 758 mmHg 94%
    07:00 +26°C° 0 mm 1 mps 758 mmHg 89%
    08:00 +28°C° 0 mm 1 mps 759 mmHg 85%
    09:00 +29°C° 0 mm 1 mps 758 mmHg 78%
    10:00 +31°C° 0 mm 1 mps 758 mmHg 70%
    11:00 +33°C° 0 mm 1 mps 758 mmHg 62%
    12:00 +33°C° 0 mm 1 mps 757 mmHg 61%
    13:00 +34°C° 0 mm 1 mps 756 mmHg 59%
    14:00 +34°C° 0 mm 1 mps 756 mmHg 57%
    15:00 +34°C° 0 mm 1 mps 756 mmHg 63%
    16:00 +33°C° 0 mm 1 mps 756 mmHg 69%
    17:00 +32°C° 0 mm 1 mps 756 mmHg 74%
    18:00 +30°C° 0 mm 1 mps 756 mmHg 78%
    19:00 +29°C° 0 mm 1 mps 757 mmHg 82%
    20:00 +27°C° 0 mm 2 mps 757 mmHg 86%
    21:00 +27°C° 0 mm 2 mps 757 mmHg 88%
    22:00 +26°C° 0 mm 1 mps 758 mmHg 90%
    23:00 +26°C° 0 mm 1 mps 758 mmHg 92%
    Show more